Flag for Brazil Weather past 2 weeks in Campo Grande, Mato Grosso Do Sul, Brazil

Now
72 °F

Passing clouds.


Feels Like: 71 °F
Forecast: N/A
Wind: 3 mph from East

Location: Campo Grande Aeroporto

Current Time: Feb 26, 2015 at 7:20:34 PM

Latest Report: Feb 26, 2015 at 7:00 PM


Visibility: N/A

Pressure: 29.89 "Hg

Humidity: 83%

Dew point: 66 °F

Location of Campo GrandeLocation

Historic Weather in Campo Grande — Graph

°F

Campo Grande temperature yesterday

Maximum temperature yesterday: 86 °F (at 11:00 AM)
Minimum temperature yesterday: 68 °F (at 4:00 AM)
Average temperature yesterday: 77 °F

Past Weeks' High & Low Weather Summary

 TemperatureHumidityPressure
High93 °F (Feb 23, 2:00 PM)100% (Feb 11, 9:00 PM)30.07 "Hg (Feb 11, 9:00 PM)
Low34 °F (Feb 24, 1:00 AM)27% (Feb 13, 7:00 PM)29.71 "Hg (Feb 23, 6:00 AM)
Average75 °F81%29.95 "Hg
* Reported Feb 11 7:00 PM — Feb 26 6:00 PM, Campo Grande, Weather by CustomWeather, © 2015

Note: Actual official high and low records may vary slightly from our data, if they occured in-between our weather recording intervals... More about our weather records

Advertising

Campo Grande weather history for previous 24 hours

 ConditionsComfort  
Time TempWeatherWind HumidityBarometerVisibility
6:00 PM
Thu, Feb 26
73 °FPassing clouds.7 mph83%29.89 "HgN/A
5:00 PM72 °FThundershowers. Passing clouds.7 mph88%29.86 "HgN/A
4:00 PM70 °FThundershowers. Scattered clouds.2 mph94%29.89 "Hg5 mi
3:00 PM70 °FThunderstorms. Scattered clouds.5 mph94%29.92 "Hg5 mi
2:00 PM72 °FStrong thunderstorms. Partly sunny.20 mph83%N/A1 mi
1:00 PM84 °FThunderstorms. Partly sunny.7 mph58%29.95 "HgN/A
12:00 PM86 °FThunderstorms. Scattered clouds.8 mph55%29.95 "HgN/A
11:00 AM86 °FScattered showers. Scattered clouds.7 mph59%N/AN/A
10:00 AM86 °FScattered clouds.9 mph59%30.01 "HgN/A
9:00 AM84 °FScattered clouds.8 mph58%30.01 "HgN/A
8:00 AM82 °FSunny.6 mph66%30.01 "Hg10 mi
7:00 AM75 °FSunny.7 mph83%29.98 "Hg10 mi
6:00 AM72 °FSunny.5 mph88%29.98 "Hg10 mi
5:00 AM73 °FSunny.8 mph83%29.98 "Hg10 mi
4:00 AM72 °FClear.8 mph88%29.98 "Hg10 mi
3:00 AM72 °FClear.2 mph88%29.98 "Hg10 mi
2:00 AM72 °FClear.2 mph88%29.98 "Hg10 mi
1:00 AM72 °FClear.5 mph88%30.01 "Hg10 mi
12:00 AM72 °FClear.5 mph88%30.01 "Hg10 mi
11:00 PM
Wed, Feb 25
73 °FClear.8 mph83%30.01 "Hg10 mi
10:00 PM73 °FPassing clouds.3 mph83%30.01 "HgN/A
9:00 PM73 °FPassing clouds.3 mph89%30.01 "HgN/A
8:00 PM75 °FPassing clouds.6 mph83%29.98 "HgN/A
7:00 PM75 °FPassing clouds.3 mph83%29.95 "HgN/A
Weather by CustomWeather, © 2015

See weather overviewHow to use our weather pages